User: anonymous   Login
Location: Unspecified
(0.0000°N, 0.0000°E)
Time: 06:44:08
(UTC+00:00)
Language:

NINGXIA-1 5 - Orbit

View from above orbital plane
View from above orbital plane
View from above satellite
View from above satellite

Ground track
Ground track

The orbit is defined by the following mean orbital elements,

1 44783U          26145.67813887 +.00000000 +00000-0 -33898-4 0 00001
2 44783  45.0060 279.7918 0010261  38.9974 321.1599 14.02084216    04
Epoch (UTC): 25 May 2026 16:16:31
Eccentricity: 0.0010261
inclination: 45.0060°
perigee height: 879 km
apogee height: 894 km
right ascension of ascending node: 279.7918°
argument of perigee: 38.9974°
revolutions per day: 14.02084216
mean anomaly at epoch: 321.1599°

The dashed part of the orbit path shows where the satellite is in the earth's shadow,  

DLR